Weather History for Des Moines, IA

Change the Weather History Date:

Saturday, November 1, 2014

  Actual Average Record
Temperature  
Mean Temperature 36 °F 47 °F  
Max Temperature 48 °F 56 °F 82 °F (1938)
Min Temperature 23 °F 38 °F 16 °F (1895)
Degree Days  
Heating Degree Days 29 18  
Month to date heating degree days 29 18  
Since 1 July heating degree days 411 502  
Cooling Degree Days 0 0  
Month to date cooling degree days 0 0  
Year to date cooling degree days 1075 1066  
Moisture  
Dew Point 20 °F    
Average Humidity 56    
Maximum Humidity 81    
Minimum Humidity 31    
Precipitation  
Precipitation 0.00 in 0.09 in 2.05 in (1971)
Month to date precipitation 0.00 0.09  
Year to date precipitation 40.38 32.50  
Snow  
Snow 0.00 in 0.00 in 1.80 in (1991)
Month to date snowfall 0.0 0.0  
Since 1 July snowfall 0.0 0.4  
Since 1 September snowfall 0.0 0.4  
Snow Depth 0.00 in    
Sea Level Pressure  
Sea Level Pressure 30.42 in    
Wind  
Wind Speed 9 mph (SSE)    
Max Wind Speed 17 mph    
Max Gust Speed 22 mph    
Visibility 10 miles    
Events      
T = Trace of Precipitation, MM = Missing Value Source: NWS Daily Summary

Daily Weather History Graph

Daily Weather History Graph

Search for Another Location

Airport:

Trip Planner

Search our weather history database for the weather conditions in past years. The results will help you decide how hot, cold, wet, or windy it might be!

Date:

Astronomy

Nov. 01, 2014 Rise Set
Actual Time 7:46 AM CDT 6:09 PM CDT
Civil Twilight 7:17 AM CDT 6:38 PM CDT
Nautical Twilight 6:44 AM CDT 7:10 PM CDT
Astronomical Twilight 6:12 AM CDT 7:43 PM CDT
Moon 3:07 PM CDT (11/1) 1:38 AM CDT (11/1)
Length of Visible Light 11h 20m
Length of Day
10h 22m
Waxing Gibbous, 68% of the Moon is Illuminated
Nov 1
Waxing Gibbous
Nov 6
Full
Nov 14
Last Quarter
Nov 22
New
Nov 29
First Quarter

Hourly Weather History & Observations

Time (CDT) Temp. Windchill Dew Point Humidity Pressure Visibility Wind Dir Wind Speed Gust Speed Precip Events Conditions
12:54 AM 33.1 °F - 18.0 °F 54% 30.51 in 10.0 mi Calm Calm - N/A   Partly Cloudy
1:54 AM 28.9 °F - 19.0 °F 67% 30.51 in 10.0 mi Calm Calm - N/A   Partly Cloudy
2:54 AM 30.0 °F - 19.0 °F 64% 30.51 in 10.0 mi Calm Calm - N/A   Clear
3:54 AM 28.9 °F - 19.0 °F 67% 30.50 in 10.0 mi Calm Calm - N/A   Clear
4:54 AM 28.9 °F 25.2 °F 19.0 °F 67% 30.49 in 10.0 mi ESE 3.5 mph - N/A   Clear
5:54 AM 26.1 °F - 19.0 °F 75% 30.51 in 10.0 mi Calm Calm - N/A   Clear
6:54 AM 28.0 °F 24.2 °F 19.9 °F 72% 30.51 in 10.0 mi SE 3.5 mph - N/A   Partly Cloudy
7:54 AM 25.0 °F 19.3 °F 19.9 °F 81% 30.51 in 10.0 mi SSE 4.6 mph - N/A   Mostly Cloudy
8:54 AM 30.0 °F 22.4 °F 21.0 °F 69% 30.51 in 10.0 mi SSE 8.1 mph - N/A   Scattered Clouds
9:54 AM 33.1 °F 24.9 °F 23.0 °F 66% 30.50 in 10.0 mi SSE 10.4 mph - N/A   Scattered Clouds
10:54 AM 37.0 °F 28.5 °F 21.0 °F 52% 30.50 in 10.0 mi SSE 13.8 mph - N/A   Scattered Clouds
11:54 AM 39.9 °F 32.1 °F 21.0 °F 47% 30.48 in 10.0 mi SSE 13.8 mph - N/A   Scattered Clouds
12:54 PM 43.0 °F 36.4 °F 21.0 °F 42% 30.44 in 10.0 mi SSE 12.7 mph - N/A   Partly Cloudy
1:54 PM 46.0 °F 41.4 °F 21.0 °F 37% 30.40 in 10.0 mi SE 9.2 mph - N/A   Partly Cloudy
2:54 PM 48.0 °F - 19.0 °F 32% 30.37 in 10.0 mi South 13.8 mph - N/A   Partly Cloudy
3:54 PM 48.0 °F - 19.0 °F 32% 30.35 in 10.0 mi SSE 13.8 mph - N/A   Partly Cloudy
4:54 PM 48.0 °F - 19.0 °F 32% 30.34 in 10.0 mi SSE 11.5 mph - N/A   Partly Cloudy
5:54 PM 45.0 °F 39.7 °F 19.0 °F 36% 30.33 in 10.0 mi SSE 10.4 mph - N/A   Partly Cloudy
6:54 PM 44.1 °F 38.1 °F 19.9 °F 38% 30.32 in 10.0 mi SE 11.5 mph - N/A   Partly Cloudy
7:54 PM 41.0 °F 33.5 °F 21.0 °F 45% 30.31 in 10.0 mi SSE 13.8 mph - N/A   Clear
8:54 PM 39.9 °F 32.9 °F 21.0 °F 47% 30.30 in 10.0 mi SSE 11.5 mph - N/A   Clear
9:54 PM 39.0 °F 31.8 °F 21.9 °F 50% 30.31 in 10.0 mi SSE 11.5 mph - N/A   Partly Cloudy
10:54 PM 39.0 °F 31.0 °F 21.0 °F 49% 30.29 in 10.0 mi SSE 13.8 mph - N/A   Partly Cloudy
11:54 PM 37.0 °F 30.4 °F 21.9 °F 54% 30.28 in 10.0 mi SSE 9.2 mph - N/A   Scattered Clouds